Regional Weather Roundup
Issued by NWS

Home | Current Version | Previous Version | Graphics & Text | Print | Product List | Glossary On
Versions: 1 2 3 4 5 6 7 8 9 10 11 12 13 14 15 16 17 18 19 20 21 22 23 24 25 26 27 28 29 30 31 32 33 34 35 36 37 38 39 40 41 42 43 44 45 46 47 48 49 50
920
ASUS43 KLOT 231408
RWRIL

ILLINOIS REGIONAL WEATHER ROUNDUP
NATIONAL WEATHER SERVICE CHICAGO/ROMEOVILLE IL
800 AM CST MON JAN 23 2017

NOTE: "FAIR" INDICATES FEW OR NO CLOUDS BELOW 12,000 FEET WITH NO
SIGNIFICANT WEATHER AND/OR OBSTRUCTIONS TO VISIBILITY.

* THESE STATIONS ARE NOT UNDER NWS QUALITY CONTROL. THEY ALSO MAY NOT
  REPORT WEATHER SUCH AS PRECIPITATION OR FOG.

ILZ001-002-007-009-015-016-024-231500-
NORTHWEST ILLINOIS

CITY           SKY/WX    TMP DP  RH WIND       PRES   REMARKS
MOLINE         CLOUDY    37  33  85 NW8       29.82R WCI  31
STERLING*      CLOUDY    37  35  92 NW9       29.80R FOG     WCI  30
SAVANNA*       CLOUDY    37  35  93 NW5       29.81S FOG     WCI  33
$$

ILZ003-004-008-010-011-017-018-231500-
NORTH CENTRAL ILLINOIS

CITY           SKY/WX    TMP DP  RH WIND       PRES   REMARKS
ROCKFORD       CLOUDY    37  34  89 N8        29.80R FOG     WCI  31
FREEPORT*      CLOUDY    35  34  96 NW8       29.81R FOG     WCI  29
ROCHELLE*      FOG       35  35 100 NW6       29.79R VSB 1   WCI  30
DE KALB*       CLOUDY    36  35  96 N9        29.77R FOG     WCI  29
PERU*          CLOUDY    36  34  93 NW8       29.79R FOG     WCI  29
$$

ILZ005-006-012>014-019>023-231500-
NORTHEAST ILLINOIS

CITY           SKY/WX    TMP DP  RH WIND       PRES   REMARKS
CHICAGO-OHARE  CLOUDY    38  35  89 N12       29.74R WCI  30
CHICAGO-MIDWAY CLOUDY    39  34  82 N12G24    29.74R WCI  32
AURORA         CLOUDY    37  35  92 NW8       29.75R FOG     WCI  31
LANSING*       CLOUDY    37  36  95 N8        29.74R WCI  31
JOLIET*        CLOUDY    39  36  88 N7        29.76R WCI  34
WAUKEGAN       CLOUDY    38  35  89 NW5       29.74S WCI  34
DUPAGE AIRPORT CLOUDY    38  34  85 N8        29.74R WCI  32
KANKAKEE*      CLOUDY    38  34  85 N10G18    29.74R WCI  31
WHEELING       CLOUDY    38  34  85 N10       29.76R WCI  31
MORRIS*        CLOUDY    38  35  89 N6        29.75R WCI  33
ROMEOVILLE*    CLOUDY    38  37  97 N9G16     29.75R WCI  31
NORTHERLY ISL    N/A     37  34  89 MISG        N/A
$$

LMZ740>746-231500-
SOUTHERN LAKE MICHIGAN

STATION/POSITION SKY/WX   TEMP    WIND        PRES    VSBY  WAVE
                          AIR SEA DIR/SP/G                  HT/PER
                          (F)     (DEG/KT/KT) (MB)    (MI)  (FT/S)
HARRISON CRIB              36     340/ 12/ 13   N/A
BURNHAM HARBOR             37     350/  9/ 14   N/A
CALUMET HARBOR             36     340/  9/ 13 1006.4
BURNS HARBOR               36     340/ 11/ 15 1007.1
MICHIGAN CITY              36     330/ 17/ 18   N/A
$$

ILZ025>027-034>036-040-047-049-050-058-095>099-231500-
WEST-CENTRAL ILLINOIS

CITY           SKY/WX    TMP DP  RH WIND       PRES   REMARKS
QUINCY         CLOUDY    38  34  85 N13       29.84R WCI  30
GALESBURG*     CLOUDY    36  35  97 NW7       29.82R WCI  30
MACOMB*        CLOUDY    37  36  96 NW5       29.84R WCI  33
JACKSONVILLE*  CLOUDY    37  35  91 NW7       29.82R FOG     WCI  32
PITTSFIELD*    CLOUDY    39  36  89 NW7       29.85R WCI  34
$$

ILZ028>032-037-038-041>044-048-051>054-059>061-231500-
CENTRAL ILLINOIS

CITY           SKY/WX    TMP DP  RH WIND       PRES   REMARKS
PONTIAC        CLOUDY    38  38 100 N14       29.77R WCI  29
BLOOMINGTON    CLOUDY    36  34  92 N16       29.76R WCI  26
DECATUR        CLOUDY    38  36  92 N16       29.76R WCI  29
PEORIA         CLOUDY    37  35  92 N7        29.80R WCI  32
LACON*         CLOUDY    36  35  98 N7        29.79S FOG     WCI  30
LINCOLN*       CLOUDY    39  37  92 NW6       29.78R WCI  34
SPRINGFIELD    CLOUDY    39  35  86 NW12      29.81R WCI  32
TAYLORVILLE    CLOUDY    37  35  92 NW18      29.79R WCI  27
$$

ILZ033-039-045-046-055>057-062-063-231500-
EAST-CENTRAL ILLINOIS

CITY           SKY/WX    TMP DP  RH WIND       PRES   REMARKS
CHAMPAIGN      CLOUDY    38  35  89 NW18      29.73R WCI  28
RANTOUL*       CLOUDY    40  38  92 N15G23    29.73R
MATTOON        CLOUDY    38  36  92 NW14      29.72R WCI  30
PARIS*         CLOUDY    40  38  95 N13G18    29.71R FOG
$$

ILZ079-100>102-231500-
SOUTHWEST ILLINOIS

CITY           SKY/WX    TMP DP  RH WIND       PRES   REMARKS
ALTON          CLOUDY    39  34  81 NW16      29.81R WCI  30
BELLEVILLE     CLOUDY    41  37  87 NW21      29.80R
CAHOKIA*       CLOUDY    42  35  76 NW14      29.82R
SPARTA*        CLOUDY    40  35  84 NW13G22   29.80R
$$

ILZ064>066-069>071-074>076-080>082-084>086-088>090-092>094-231500-
SOUTH-CENTRAL ILLINOIS

CITY           SKY/WX    TMP DP  RH WIND       PRES   REMARKS
CARBONDALE     CLOUDY    41  37  86 NW17      29.77R
CAIRO*         CLOUDY    41  36  83 NW21G26   29.74R
EFFINGHAM*     CLOUDY    40  38  92 NW15G25   29.75R
MARION         CLOUDY    41  39  93 NW23      29.77R
MT. VERNON     CLOUDY    41  36  82 VRB6      29.75R
CENTRALIA*     CLOUDY    41  37  87 NW13G22   29.76R
SALEM*         CLOUDY    41  37  83 NW15      29.75R
METROPOLIS*    CLOUDY    41  37  83 NW13G22   29.73R
$$

ILZ067-068-072-073-078-083-087-091-231500-
SOUTHEAST ILLINOIS

CITY           SKY/WX    TMP DP  RH WIND       PRES   REMARKS
LAWRENCEVILLE  CLOUDY    42  39  89 N17G28    29.69R
FLORA*         CLOUDY    43  37  81 N15G21    29.73R
FAIRFIELD*     CLOUDY    41  37  83 NW9G17    29.71R
HARRISBURG*    CLOUDY    41  37  86 NW14G21   29.73R
ROBINSON*      CLOUDY    40  38  91 N13G20    29.69R FOG
CARMI*         CLOUDY    42  38  87 NW21      29.69R FOG
$$

ABBREVIATIONS USED IN REMARKS
   TC - TEMPERATURE IN CELSIUS
  WCI - WIND CHILL INDEX
   HX - HEAT INDEX
  VSB - VISIBILITY
$$





USA.gov is the U.S. government's official web portal to all federal, state and local government web resources and services.